一网星座-0370星 (ONEWEB-0370 )

导读 | 豆包AI

ONEWEB-0370是英国OneWeb星座计划中的一颗低轨通信卫星,于2021年10月14日发射升空。卫星重约147.5公斤,搭载Ku波段天线,单星业务吞吐量可达6Gb/s,主要为全球提供宽带互联网接入服务。它设计寿命满足星座长期组网需求,任务结束后会按计划安全脱轨,是OneWeb构建全球天基通信网络的重要组成部分,可支撑民用通信及潜在战术信息传输场景。

Basic Information
目录编号:
49296
目录名称:
ONEWEB-0370
国际标识:
2021-090T
轨道中心:
EARTH
卫星名称:
一网星座-0370星
卫星全名:
一网星座-0370星 (ONEWEB-0370 )
卫星状态:
在轨 (已飞行1661 天)
发射日期:
2021-10-14 UTC
国别 :
英国 (GB)
星等 :
--
Orbit Information
数据来源 国际轨道数据 AOE轨道数据
星历时间 2026-05-02T12:30:55+0800
5小时前
查看轨道信息
2026-04-30T17:00:00+0800
2天前
查看轨道信息
半长轴 7559.918km 7559.92km
偏心率 0.0001519 0.0001436
轨道倾角 87.915° 87.915°
近地点辐角 97.881° 91.646°
升交点赤经 283.618° 283.979°
平近点角 262.250° 292.366°
近地点 1180.632km 1180.697km
远地点 1182.93km 1182.869km
周期 109.027分钟 109.027分钟
每日圈数 13.2077 13.207694
Detailed Information
平衡模式:
三轴稳定
覆盖范围:
全球
运营商:
一网卫星公司
运营商所在国:
英国
制造商(研发单位):
一网卫星公司
制造商所在国:
英国
使用方式:
暂无
Satellite Introduction
OneWeb卫星网络由648颗重约125公斤的微型卫星组成,运行在1200公里的轨道上。 每颗卫星都能够提供至少每秒8千兆位的吞吐量,以使用其高吞吐量的Ku频段有效载荷为家庭和移动平台提供互联网接入。该卫星仍在工作。
2D Orbit Map
3D Orbit Map
Orbit Altitude Analysis Chart
Orbit Inclination Analysis Chart
Orbit Comprehensive Analysis Chart
View Comprehensive Chart